Terug naar catalogus

SL-14 R/B

ActiefPO
NORAD 20671·ROCKET BODY·🇷🇺 Russia

Gelanceerd Jun 27, 1990 vanaf Plesetsk Cosmodrome

Loading…

Volgende Passages (komende 24 uur)

TLE

VersSource: Space-Track

Epoch: Sep 14, 2026, 14:42 UTC

1 20671U 90057B   26257.61270955  .00000027  00000-0  10664-4 0  9994
2 20671  82.5480 208.0474 0014962 187.3378 172.7566 13.84741628830042

Volg SL-14 R/B in realtime met AllMySat

Download on the App Store